GW0115 Weather Reports


time (UTC)temp
C
wind
direction
speed
KPH
gust
KPH
rain 1hr
cm
rain 24hr
cm
rain mn
cm
humidity
%
barometer
mb
20260901011556 21 0 0.0 0.0 0.00 0.00 0.00 80 1017.3
20260901010116 21 0 0.0 1.6 0.00 0.00 0.00 79 1017.4
20260901004600 21 0 0.0 4.8 0.00 0.00 0.00 80 1017.4
20260901003105 21 0 0.0 4.8 0.00 0.00 0.00 81 1017.4
20260901001557 21 0 0.0 0.0 0.00 0.00 0.00 80 1017.2
20260901000056 21 0 0.0 0.0 0.00 0.00 0.00 77 1017.3
20260831234602 21 0 0.0 0.0 0.00 0.00 0.00 77 1017.2
20260831233109 22 0 0.0 0.0 0.00 0.00 0.00 75 1017.3
20260831231558 22 0 0.0 0.0 0.00 0.00 0.00 75 1017.4
20260831230114 22 0 0.0 0.0 0.00 0.00 0.00 74 1017.4
20260831224556 22 0 0.0 0.0 0.00 0.00 0.00 70 1017.6
20260831223111 22 0 0.0 0.0 0.00 0.00 0.00 73 1017.6
20260831221603 22 0 0.0 0.0 0.00 0.00 0.00 73 1017.7
20260831220101 23 0 0.0 0.0 0.00 0.00 0.00 73 1017.8
20260831214607 23 0 0.0 0.0 0.00 0.00 0.00 72 1017.7
20260831213052 23 0 0.0 3.2 0.00 0.00 0.00 68 1017.6
20260831211601 23 0 0.0 1.6 0.00 0.00 0.00 69 1017.6
20260831210056 23 0 0.0 0.0 0.00 0.00 0.00 71 1017.7
20260831204558 23 0 0.0 0.0 0.00 0.00 0.00 70 1017.7
20260831203114 23 0 0.0 0.0 0.00 0.00 0.00 70 1017.8
20260831201557 24 0 0.0 0.0 0.00 0.00 0.00 69 1017.9
20260831200106 24 0 0.0 0.0 0.00 0.00 0.00 67 1018.0
20260831194637 24 0 0.0 0.0 0.00 0.00 0.00 69 1018.1
20260831193101 24 0 0.0 0.0 0.00 0.00 0.00 67 1018.3
20260831191556 23 0 0.0 0.0 0.00 0.00 0.00 65 1018.5
20260831184600 24 0 0.0 0.0 0.00 0.00 0.00 65 1018.7
20260831183106 25 0 0.0 0.0 0.00 0.00 0.00 66 1018.8
20260831181557 25 0 0.0 0.0 0.00 0.00 0.00 67 1019.0
20260831180111 24 0 0.0 0.0 0.00 0.00 0.00 68 1019.3
20260831174558 23 0 0.0 0.0 0.00 0.00 0.00 70 1019.5
20260831173058 23 0 0.0 0.0 0.00 0.00 0.00 69 1019.5
20260831171555 23 0 0.0 0.0 0.00 0.00 0.00 68 1019.8
20260831170059 24 0 0.0 0.0 0.00 0.00 0.00 70 1019.9
20260831164600 24 0 0.0 0.0 0.00 0.00 0.00 72 1019.8
20260831163102 23 0 0.0 0.0 0.00 0.00 0.00 75 1019.9
20260831161554 23 0 0.0 0.0 0.00 0.00 0.00 70 1020.2
20260831160059 22 0 0.0 0.0 0.00 0.00 0.00 70 1020.4
20260831154616 22 0 0.0 0.0 0.00 0.00 0.00 73 1020.4
20260831153058 21 0 0.0 4.8 0.00 0.00 0.00 74 1020.5
20260831151612 21 0 0.0 0.0 0.00 0.00 0.00 76 1020.6
20260831150058 21 0 0.0 0.0 0.00 0.00 0.00 76 1020.5
20260831144605 21 0 0.0 0.0 0.00 0.00 0.00 76 1020.4
20260831143100 21 0 0.0 0.0 0.00 0.00 0.00 76 1020.6
20260831141556 20 0 0.0 0.0 0.00 0.00 0.00 77 1020.7
20260831140058 20 0 0.0 0.0 0.00 0.00 0.00 79 1020.7
20260831134600 20 0 0.0 1.6 0.00 0.00 0.00 79 1020.8
20260831133103 20 0 0.0 1.6 0.00 0.00 0.00 83 1020.8
20260831131559 18 0 0.0 0.0 0.00 0.00 0.00 88 1020.7
20260831130101 17 0 0.0 0.0 0.00 0.00 0.00 89 1020.9
20260831124605 17 0 0.0 0.0 0.00 0.00 0.00 93 1020.8
20260831123056 17 0 0.0 0.0 0.00 0.00 0.00 93 1020.9
20260831121602 16 0 0.0 0.0 0.00 0.00 0.00 94 1020.8
20260831120114 16 0 0.0 0.0 0.00 0.00 0.00 94 1020.7
20260831114558 15 0 0.0 0.0 0.00 0.00 0.00 94 1020.8
20260831113104 15 0 0.0 0.0 0.00 0.00 0.00 95 1020.7
20260831111555 14 0 0.0 0.0 0.00 0.00 0.00 95 1020.5
20260831104612 13 0 0.0 0.0 0.00 0.00 0.00 94 1020.0
20260831103056 13 0 0.0 0.0 0.00 0.00 0.00 94 1019.8
20260831101553 14 0 0.0 0.0 0.00 0.00 0.00 94 1019.8
20260831100122 14 0 0.0 0.0 0.00 0.00 0.00 94 1019.7
20260831094557 14 0 0.0 0.0 0.00 0.00 0.00 94 1019.6
20260831093103 14 0 0.0 0.0 0.00 0.00 0.00 94 1019.5
20260831091600 14 0 0.0 0.0 0.00 0.00 0.00 94 1019.6
20260831090057 14 0 0.0 0.0 0.00 0.00 0.00 94 1019.6
20260831084607 15 0 0.0 0.0 0.00 0.00 0.00 93 1019.5
20260831083104 15 0 0.0 0.0 0.00 0.00 0.00 93 1019.4
20260831081558 15 0 0.0 0.0 0.00 0.00 0.00 93 1019.4
20260831080105 15 0 0.0 0.0 0.00 0.00 0.00 93 1019.5
20260831074558 15 0 0.0 0.0 0.00 0.00 0.00 93 1019.2
20260831073105 16 0 0.0 0.0 0.00 0.00 0.00 92 1019.2
20260831071558 16 0 0.0 0.0 0.00 0.00 0.00 92 1019.2
20260831070113 16 0 0.0 0.0 0.00 0.00 0.00 92 1019.2
20260831064605 16 0 0.0 0.0 0.00 0.00 0.00 91 1018.9
20260831063100 16 0 0.0 0.0 0.00 0.00 0.00 91 1018.8
20260831061557 16 0 0.0 0.0 0.00 0.00 0.00 90 1018.8
20260831060059 17 0 0.0 0.0 0.00 0.00 0.00 90 1018.9
20260831054604 17 0 0.0 0.0 0.00 0.00 0.00 89 1018.9
20260831053058 17 0 0.0 0.0 0.00 0.00 0.00 88 1019.1
20260831051555 17 0 0.0 0.0 0.00 0.00 0.00 88 1019.1
20260831050103 17 0 0.0 0.0 0.00 0.00 0.00 87 1018.9
20260831044602 18 0 0.0 0.0 0.00 0.00 0.00 85 1018.8
20260831043056 18 0 0.0 6.4 0.00 0.00 0.00 83 1018.9
20260831041605 19 0 0.0 9.7 0.00 0.00 0.00 83 1018.7
20260831034557 19 0 0.0 0.0 0.00 0.00 0.00 83 1018.6
20260831033103 18 0 0.0 0.0 0.00 0.00 0.00 84 1018.6
20260831031558 19 0 0.0 0.0 0.00 0.00 0.00 84 1018.7
20260831030106 19 0 0.0 0.0 0.00 0.00 0.00 83 1018.7
20260831024553 19 0 0.0 0.0 0.00 0.00 0.00 82 1018.7
20260831023058 19 0 0.0 0.0 0.00 0.00 0.00 82 1018.5
20260831021600 20 0 0.0 0.0 0.00 0.00 0.00 80 1018.3
20260831020106 20 0 0.0 0.0 0.00 0.00 0.00 80 1018.4
20260831014617 20 0 0.0 0.0 0.00 0.00 0.00 79 1018.2
20260831013058 20 0 0.0 0.0 0.00 0.00 0.00 79 1018.2